Location: Mountain Meadows Observatory
(38.9513°N, 78.9327°W)
Time: 12:07:31
(UTC-04:00)

Tiangong 2 - Visible Passes

Search period start: 26 May 2019 00:00
Search period end: 05 June 2019 00:00
Orbit: 379 x 387 km, 42.8° (Epoch: 26 May)

Date Brightness Start Highest point End Pass type
(mag) Time Alt. Az. Time Alt. Az. Time Alt. Az.
26 May 2.0 21:58:03 10° WNW 22:01:05 44° N 22:02:59 19° ENE visible
26 May 4.1 23:34:47 10° WNW 23:35:08 12° WNW 23:35:08 12° WNW visible
27 May 2.3 20:57:58 10° WNW 21:00:56 39° N 21:03:54 10° ENE visible
27 May 1.0 22:34:42 10° WNW 22:37:41 79° WNW 22:37:41 79° WNW visible
28 May 1.5 21:34:39 10° WNW 21:37:46 58° NNE 21:40:13 15° E visible
28 May 3.6 23:11:33 10° W 23:12:23 16° W 23:12:23 16° W visible
29 May 1.2 22:11:19 10° WNW 22:14:24 55° SSW 22:14:56 47° SSE visible
30 May 1.0 21:11:14 10° WNW 21:14:23 86° NNE 21:17:30 10° ESE visible
30 May 3.5 22:48:36 10° W 22:49:40 15° WSW 22:49:40 15° WSW visible
31 May 2.2 21:48:03 10° W 21:50:53 31° SSW 21:52:15 21° SSE visible
02 Jun 3.1 21:25:02 10° W 21:27:16 18° SW 21:29:30 10° S visible
